Westminster, MD

3:45 PM EST on November 20, 2019 (GMT -0500)
Carroll County Regional-Poage

Weather History for KDMW - September, 2019

Change the Weather History Date:

Saturday, September 28, 2019

  Actual Average (KTHV) Record (KTHV)
Temperature  
Mean Temperature 76 °F -  
Max Temperature 89 °F 0 °F 81 °F (2014)
Min Temperature 64 °F - 37 °F (2000)
Cooling Degree Days 12    
Growing Degree Days 26 (Base 50)    
Moisture  
Dew Point 67 °F    
Average Humidity 78    
Maximum Humidity 89    
Minimum Humidity 55    
Precipitation  
Precipitation 0.00 in - - ()
Sea Level Pressure  
Sea Level Pressure 30.10 in    
Wind  
Wind Speed 5 mph (South)    
Max Wind Speed 10 mph    
Max Gust Speed -    
Visibility 10 miles    
Events Rain , Thunderstorm    
Averages and records for this station are not official NWS values.
T = Trace of Precipitation, MM = Missing Value Source: NWS Daily Summary

Daily Weather History Graph

Daily Weather History Graph

Search for Another Location

Airport or City:

Astronomy

Sep. 28, 2019 Rise Set
Actual Time 7:01 AM EDT 6:55 PM EDT
Civil Twilight 6:34 AM EDT 7:22 PM EDT
Nautical Twilight 6:02 AM EDT 7:53 PM EDT
Astronomical Twilight 5:31 AM EDT 8:25 PM EDT
Moon 6:35 AM EDT (9/28) 7:20 PM EDT (9/28)
Length of Visible Light 12h 48m
Length of Day
11h 54m
Waning Crescent, 0% of the Moon is Illuminated
Sep 28
Waning Crescent
Sep 28
New
Oct 5
First Quarter
Oct 13
Full
Oct 21
Last Quarter

Hourly Weather History & Observations

Time (EDT) Temp. Heat Index Dew Point Humidity Pressure Visibility Wind Dir Wind Speed Gust Speed Precip Events Conditions
12:00 AM 68.0 °F - 60.8 °F 78% 30.11 in 10.0 mi South 4.6 mph - N/A   Clear
12:20 AM 68.0 °F - 60.8 °F 78% 30.11 in 10.0 mi South 6.9 mph - N/A   Clear
12:40 AM 66.2 °F - 60.8 °F 83% 30.10 in 10.0 mi South 4.6 mph - N/A   Clear
1:00 AM 66.2 °F - 60.8 °F 83% 30.11 in 10.0 mi South 3.5 mph - N/A   Clear
1:20 AM 66.2 °F - 60.8 °F 83% 30.11 in 10.0 mi South 5.8 mph - N/A   Clear
1:40 AM 66.2 °F - 60.8 °F 83% 30.11 in 10.0 mi SSE 4.6 mph - N/A   Clear
2:00 AM 66.2 °F - 60.8 °F 83% 30.11 in 10.0 mi SSE 4.6 mph - N/A   Clear
2:20 AM 66.2 °F - 60.8 °F 83% 30.10 in 10.0 mi SSE 4.6 mph - N/A   Clear
2:40 AM 66.2 °F - 60.8 °F 83% 30.10 in 10.0 mi South 4.6 mph - N/A   Clear
3:00 AM 66.2 °F - 60.8 °F 83% 30.10 in 10.0 mi South 4.6 mph - N/A   Clear
3:20 AM 64.4 °F - 60.8 °F 88% 30.10 in 10.0 mi South 5.8 mph - N/A   Clear
3:40 AM 64.4 °F - 60.8 °F 88% 30.10 in 10.0 mi South 5.8 mph - N/A   Scattered Clouds
4:00 AM 64.4 °F - 60.8 °F 88% 30.10 in 10.0 mi SSE 4.6 mph - N/A   Scattered Clouds
4:20 AM 64.4 °F - 60.8 °F 88% 30.10 in 10.0 mi South 4.6 mph - N/A   Clear
4:40 AM 64.4 °F - 60.8 °F 88% 30.11 in 10.0 mi South 3.5 mph - N/A   Scattered Clouds
5:00 AM 66.2 °F - 60.8 °F 83% 30.12 in 10.0 mi Calm Calm - N/A   Mostly Cloudy
5:20 AM 64.4 °F - 60.8 °F 88% 30.11 in 10.0 mi SSE 3.5 mph - N/A   Scattered Clouds
5:40 AM 66.2 °F - 60.8 °F 83% 30.11 in 10.0 mi SSE 5.8 mph - N/A   Mostly Cloudy
6:00 AM 66.2 °F - 62.6 °F 88% 30.11 in 10.0 mi South 5.8 mph - N/A   Overcast
6:20 AM 66.2 °F - 62.6 °F 88% 30.12 in 10.0 mi South 3.5 mph - N/A   Overcast
6:40 AM 66.2 °F - 62.6 °F 88% 30.11 in 10.0 mi SSE 5.8 mph - N/A   Overcast
7:00 AM 68.0 °F - 62.6 °F 83% 30.12 in 10.0 mi South 5.8 mph - N/A   Overcast
7:20 AM 68.0 °F - 64.4 °F 88% 30.12 in 10.0 mi South 6.9 mph - N/A   Overcast
7:40 AM 68.0 °F - 64.4 °F 88% 30.12 in 10.0 mi South 6.9 mph - N/A   Overcast
8:00 AM 68.0 °F - 64.4 °F 88% 30.12 in 10.0 mi South 6.9 mph - N/A   Overcast
8:40 AM 69.8 °F - 66.2 °F 88% 30.12 in 10.0 mi South 6.9 mph - N/A   Overcast
9:00 AM 69.8 °F - 66.2 °F 88% 30.12 in 7.0 mi South 9.2 mph - N/A   Overcast
9:20 AM 69.8 °F - 66.2 °F 88% 30.13 in 5.0 mi SSW 8.1 mph - N/A   Overcast
9:40 AM 69.8 °F - 66.2 °F 88% 30.12 in 5.0 mi South 6.9 mph - N/A   Overcast
10:00 AM 71.6 °F - 68.0 °F 88% 30.12 in 7.0 mi South 6.9 mph - N/A   Overcast
10:20 AM 71.6 °F - 68.0 °F 88% 30.12 in 7.0 mi South 9.2 mph - N/A   Overcast
11:00 AM 73.4 °F - 68.0 °F 83% 30.13 in 10.0 mi SSW 10.4 mph - N/A   Overcast
11:20 AM 73.4 °F - 69.8 °F 88% 30.12 in 10.0 mi SSW 6.9 mph - N/A   Overcast
11:40 AM 75.2 °F - 69.8 °F 83% 30.12 in 10.0 mi South 8.1 mph - N/A   Overcast
12:00 PM 78.8 °F - 69.8 °F 74% 30.11 in 10.0 mi South 6.9 mph - N/A   Mostly Cloudy
12:20 PM 78.8 °F - 69.8 °F 74% 30.12 in 10.0 mi South 8.1 mph - N/A   Scattered Clouds
12:40 PM 80.6 °F 83.9 °F 69.8 °F 70% 30.12 in 10.0 mi SSW 8.1 mph - N/A   Scattered Clouds
1:00 PM 80.6 °F 83.9 °F 69.8 °F 70% 30.11 in 10.0 mi South 6.9 mph - N/A Thunderstorm Clear
1:20 PM 82.4 °F 86.3 °F 69.8 °F 66% 30.10 in 10.0 mi South 9.2 mph - N/A   Scattered Clouds
1:40 PM 84.2 °F 89.6 °F 71.6 °F 66% 30.09 in 10.0 mi South 6.9 mph - N/A   Clear
2:00 PM 86.0 °F 91.8 °F 71.6 °F 62% 30.08 in 10.0 mi SSE 6.9 mph - N/A   Clear
2:20 PM 87.8 °F 93.8 °F 71.6 °F 58% 30.08 in 10.0 mi South 8.1 mph - N/A   Clear
2:40 PM 89.6 °F 96.2 °F 71.6 °F 55% 30.06 in 10.0 mi South 10.4 mph - N/A   Clear
3:00 PM 89.6 °F 96.2 °F 71.6 °F 55% 30.06 in 10.0 mi South 6.9 mph - N/A   Clear
3:40 PM 89.6 °F 96.2 °F 71.6 °F 55% 30.05 in 10.0 mi South 6.9 mph - N/A   Clear
4:00 PM 89.6 °F 96.2 °F 71.6 °F 55% 30.04 in 10.0 mi SSW 10.4 mph - N/A   Clear
4:20 PM 89.6 °F 96.2 °F 71.6 °F 55% 30.04 in 10.0 mi South 10.4 mph - N/A   Clear
4:40 PM 89.6 °F 96.2 °F 71.6 °F 55% 30.05 in 10.0 mi South 8.1 mph - N/A   Clear
5:00 PM 87.8 °F 93.8 °F 71.6 °F 58% 30.06 in 10.0 mi South 9.2 mph - N/A   Clear
5:20 PM 86.0 °F 91.8 °F 71.6 °F 62% 30.06 in 10.0 mi SSW 6.9 mph - N/A   Clear
5:40 PM 84.2 °F 89.6 °F 71.6 °F 66% 30.08 in 10.0 mi SSW 10.4 mph - N/A   Clear
6:00 PM 84.2 °F 89.6 °F 71.6 °F 66% 30.08 in 10.0 mi SSW 8.1 mph - N/A   Clear
6:20 PM 82.4 °F 86.3 °F 69.8 °F 66% 30.08 in 10.0 mi South 4.6 mph - N/A   Clear
6:40 PM 82.4 °F 87.2 °F 71.6 °F 70% 30.08 in 10.0 mi South 4.6 mph - N/A   Clear
7:00 PM 80.6 °F 84.6 °F 71.6 °F 74% 30.07 in 10.0 mi South 4.6 mph - N/A   Scattered Clouds
7:20 PM 80.6 °F 84.6 °F 71.6 °F 74% 30.07 in 10.0 mi South 3.5 mph - N/A   Scattered Clouds
7:40 PM 80.6 °F 84.6 °F 71.6 °F 74% 30.07 in 10.0 mi Calm Calm - N/A   Scattered Clouds
8:00 PM 78.8 °F - 71.6 °F 78% 30.07 in 10.0 mi Calm Calm - N/A   Scattered Clouds
8:20 PM 78.8 °F - 71.6 °F 78% 30.08 in 10.0 mi Calm Calm - N/A   Scattered Clouds
8:40 PM 78.8 °F - 71.6 °F 78% 30.09 in 10.0 mi South 3.5 mph - N/A   Scattered Clouds
9:00 PM 78.8 °F - 71.6 °F 78% 30.10 in 10.0 mi Calm Calm - N/A   Clear
9:20 PM 78.8 °F - 71.6 °F 78% 30.11 in 10.0 mi Calm Calm - N/A   Clear
9:40 PM 78.8 °F - 71.6 °F 78% 30.12 in 10.0 mi Calm Calm - N/A   Scattered Clouds
10:00 PM 78.8 °F - 71.6 °F 78% 30.12 in 10.0 mi Calm Calm - N/A   Clear
10:20 PM 77.0 °F - 69.8 °F 78% 30.12 in 10.0 mi NW 3.5 mph - N/A   Clear
10:40 PM 75.2 °F - 69.8 °F 83% 30.12 in 10.0 mi Calm Calm - N/A   Clear
11:00 PM 75.2 °F - 69.8 °F 83% 30.12 in 10.0 mi Calm Calm - N/A   Clear
11:20 PM 75.2 °F - 69.8 °F 83% 30.12 in 10.0 mi Calm Calm - N/A   Clear
11:40 PM 75.2 °F - 71.6 °F 89% 30.12 in 10.0 mi Calm Calm - N/A Rain Light Rain